Regional Weather Roundup
Issued by NWS

Home | Current Version | Previous Version | Graphics & Text | Print | Product List | Glossary On
Versions: 1 2 3 4 5 6 7 8 9 10 11 12 13 14 15 16 17 18 19 20 21 22 23 24 25 26 27 28 29 30 31 32 33 34 35 36 37 38 39 40 41 42 43 44 45 46 47 48 49 50
000
ASUS43 KOAX 230402
RWRNE

WEATHER ROUNDUP FOR NEBRASKA
NATIONAL WEATHER SERVICE OMAHA NE
1000 PM CST SUN JAN 22 2017

NOTES: SATELLITE DATA IS BEING USED TO AUGMENT CLOUD COVER ABOVE
       12000 FEET.
       "FAIR" INDICATES FEW OR NO CLOUDS BELOW 12,000 FEET WITH NO
       SIGNIFICANT WEATHER AND/OR OBSTRUCTIONS TO VISIBILITY.

  * THESE STATIONS DO NOT REPORT WEATHER SUCH AS RAIN...SNOW OR FOG.

NEZ001>004-019>022-054>056-230500-
NEBRASKA PANHANDLE

CITY           SKY/WX    TMP DP  RH WIND       PRES   REMARKS
SCOTTSBLUFF    CLEAR     25  19  78 SE5       29.84F WCI  19
ALLIANCE       CLEAR     21  16  81 SW3       29.84F
CHADRON        CLEAR     23  19  85 W6        29.83F WCI  16
SIDNEY         CLOUDY    23  17  78 W3        29.86F
$$

NEZ057>060-069>072-079>082-230500-
SOUTHWEST NEBRASKA

CITY           SKY/WX    TMP DP  RH WIND       PRES   REMARKS
NORTH PLATTE   CLEAR     24  20  84 CALM      29.90S
IMPERIAL       CLEAR     30  24  78 W5        29.90F WCI  25
LEXINGTON      CLEAR     28  25  87 W6        29.90S WCI  22
MCCOOK         CLEAR     28  24  85 W10       29.91R WCI  19
OGALLALA       CLEAR     27  23  85 W6        29.90F WCI  20
$$

NEZ005>010-023>029-035>040-094-230500-
NORTH CENTRAL NEBRASKA

CITY           SKY/WX    TMP DP  RH WIND       PRES   REMARKS
VALENTINE      CLEAR     20  17  88 SW7       29.87S WCI  11
AINSWORTH      CLEAR     25  23  91 W7        29.87S WCI  17
BROKEN BOW     CLEAR     33  25  72 CALM      29.88S
O`NEILL        CLEAR     26  25  96 NW7       29.89F WCI  18
ORD            CLEAR     28  23  81 CALM      29.89R
THEDFORD       CLEAR     26  23  87 CALM      29.88F
$$

NEZ041-046>049-061>064-073>077-083>087-230500-
SOUTH CENTRAL NEBRASKA

CITY           SKY/WX    TMP DP  RH WIND       PRES   REMARKS
GRAND ISLAND   CLEAR     29  26  89 NW6       29.90R WCI  23
AURORA         CLEAR     29  28  92 NW6       29.89S WCI  23
HASTINGS       CLEAR     30  26  85 NW7       29.90R WCI  23
HEBRON         CLEAR     27  26  97 CALM      29.90S
HOLDREGE       CLEAR     32  28  83 NW5       29.90S WCI  27
KEARNEY *      CLEAR     34  27  75 NW8       29.90S WCI  27
YORK           CLEAR     30  28  93 CALM      29.89S
$$

NEZ011>018-030>034-042>045-230500-
NORTHEAST NEBRASKA

CITY           SKY/WX    TMP DP  RH WIND       PRES   REMARKS
NORFOLK        CLEAR     27  24  89 NW7       29.88R WCI  19
ALBION         CLEAR     29  21  71 NW5       29.89R WCI  24
BLAIR          CLEAR     30  29  95 NW3       29.87R FOG
FREMONT        CLEAR     29  29 100 W6        29.89S WCI  23
TEKAMAH        PTCLDY    31  29  92 N7        29.89R FOG     WCI  24
WAYNE          MOCLDY    29  28  94 NW5       29.89S WCI  24
$$

NEZ050>053-065>068-078-088>093-230500-
SOUTHEAST NEBRASKA

CITY           SKY/WX    TMP DP  RH WIND       PRES   REMARKS
LINCOLN        CLEAR     26  25  96 N3        29.90R FOG
OMAHA EPPLEY   CLEAR     26  23  88 NW6       29.88S WCI  19
BEATRICE         N/A     28  28  99 CALM      29.89F FOG
FALLS CITY     CLEAR     31  29  92 NW6       29.88S WCI  25
NEBRASKA CITY  CLEAR     32  31  99 NW5       29.88R WCI  27
PLATTSMOUTH    CLEAR     31  28  90 NW8       29.87S WCI  23
$$

NEZ044-045-051>053-067-230500-
OMAHA AREA

CITY           SKY/WX    TMP DP  RH WIND       PRES   REMARKS
OMAHA EPPLEY   CLEAR     26  23  88 NW6       29.88S WCI  19
BLAIR          CLEAR     30  29  95 NW3       29.87R FOG
FREMONT        CLEAR     29  29 100 W6        29.89S WCI  23
MILLARD        PTCLDY    31  29  96 CALM      29.89R FOG
OFFUTT AFB     CLEAR     27  27 100 W3        29.87S
PLATTSMOUTH    CLEAR     31  28  90 NW8       29.87S WCI  23
WAHOO          FAIR      32  29  90 NW6       29.89R WCI  26
$$



USA.gov is the U.S. government's official web portal to all federal, state and local government web resources and services.